Powrót do katalogu

NUVIEW BRAVO

AktywnyNaukaGEO
NORAD 62457·PAYLOAD·🇬🇧 United Kingdom

Wystrzelony Dec 29, 2024 z Cape Canaveral Space Force Station

Loading…

TLE

ŚwieżeSource: Space-Track

Epoka: Sep 14, 2026, 13:24 UTC

1 62457U 24252D   26257.55867749 -.00000223  00000-0  00000-0 0  9990
2 62457   0.0623 163.0427 0001675  15.6239 292.8944  1.00272178  4689

Śledź NUVIEW BRAVO w czasie rzeczywistym z AllMySat

Download on the App Store